Location: Peterborough
(44.3091°N, 78.3197°W)
Time: 01:30:18
(UTC-04:00)

Vanguard 1 Rocket - Pass Details

Date: 22 March 2023
Orbit: 655 x 4220 km, 34.3° (Epoch: 02 June)

Event Time Altitude Azimuth Distance (km) Brightness Sun altitude
Rises 23:43:10 0° 225° (SW) 8,397 12.2 -39.9°
Reaches altitude 10° 23:49:52 10° 220° (SW) 7,155 11.7 -40.5°
Enters shadow 23:57:27 23° 209° (SSW) 5,691 11.1 -41.2°
